Wind_Speed
11 10 10 9 9 7 6 4 2 2 2 2 2 0 1 1 3 4 5 6 5 5 3 7 11 7 4 5 9 11 10 7 5 3 6 10 18 19 16 20 20 17 17 16 16 15 15 16 16 14 15 15 15 16 16 16 16 16 15 14 14 13 12 11 9 8 9 10 10 9 10 10 9 9 10 11 12 13 14 12 11 10 10 12 12 12 11 10 10 11 14 16 14 14 15 14 13
11 10 10 8 8 6 2 2 3 2 3 2 1 1 1 3 5 6 6 5 5 7 7 9 10 8 6 7 8 9 11 11 8 8 10 19 21 17 19 21 20 18 17 16 16 14 14 16 17 15 14 15 14 16 16 16 16 15 14 13 12 12 12 10 8 9 10 10 10 10 11 10 9 10 11 12 14 14 13 11 11 10 10 12 12 12 12 10 9 12 16 16 14 14 15 14 13
11 11 10 9 7 5 1 2 4 1 2 0 2 2 3 4 6 8 6 5 8 10 10 10 9 6 5 7 7 7 8 9 13 13 12 20 18 16 21 21 21 19 17 17 15 15 15 16 17 16 15 15 14 15 15 15 15 14 13 12 12 12 11 9 9 10 10 11 11 11 11 10 10 11 12 13 16 15 11 10 11 11 11 12 12 11 12 10 10 13 15 13 13 15 15 14 14
11 10 9 8 5 4 2 2 3 3 1 1 2 2 1 5 9 9 6 8 10 11 11 10 8 3 3 9 8 9 10 9 13 13 11 16 17 20 23 21 20 19 18 17 15 16 17 17 18 17 15 15 14 14 14 13 13 13 12 12 12 12 10 9 10 11 11 12 11 11 11 10 10 12 13 15 18 16 10 10 12 13 13 12 12 12 12 11 11 13 15 12 12 14 14 15 15
10 9 8 6 3 1 2 3 3 3 0 1 2 3 3 6 11 9 8 10 11 11 10 8 7 4 6 9 5 6 10 10 12 13 12 17 21 24 23 21 19 18 17 16 15 17 18 18 18 17 15 14 14 13 13 13 13 12 12 12 12 11 10 10 10 11 11 12 11 12 12 11 11 12 14 16 19 15 9 11 14 13 13 13 12 12 13 12 12 14 15 13 12 13 13 15 15
9 8 8 6 3 2 3 3 2 1 2 3 1 3 4 8 10 11 10 11 10 10 9 6 8 9 8 9 8 8 7 10 12 13 15 20 24 24 23 21 19 17 17 15 15 16 17 18 18 15 14 14 13 13 13 13 12 12 13 13 12 11 10 10 10 11 11 12 11 13 12 11 11 11 14 17 19 14 10 12 14 13 14 14 13 12 13 14 13 15 15 13 12 13 13 15 16
8 6 6 5 3 2 4 3 1 1 4 5 4 4 4 9 10 11 12 11 10 9 7 6 9 10 7 6 9 8 6 11 12 14 18 23 25 24 23 21 19 18 17 15 17 17 16 17 17 15 14 14 12 12 12 12 12 12 13 13 12 11 10 10 10 11 12 12 12 13 12 12 11 11 14 18 18 13 10 13 14 14 15 14 13 13 14 14 13 15 15 14 13 13 14 15 15
7 4 3 4 3 3 4 3 2 3 4 4 5 4 4 9 9 10 12 10 9 9 7 8 9 8 7 5 6 7 9 13 14 18 21 23 24 23 21 20 20 19 17 17 18 19 18 17 17 15 14 13 13 12 11 11 12 12 13 13 12 11 10 10 10 11 12 13 12 13 13 13 12 12 14 17 17 13 10 14 15 16 16 14 15 15 15 15 14 14 15 15 14 14 14 14 14
7 3 2 3 3 3 3 1 3 4 4 4 5 4 5 8 8 10 11 9 9 9 10 9 6 7 8 9 9 8 10 14 18 22 22 23 24 22 20 20 20 19 18 17 18 19 18 18 17 15 14 13 13 12 11 11 12 12 12 12 12 12 10 10 11 11 12 13 13 13 13 13 13 14 16 17 17 13 11 14 17 17 16 16 16 15 15 15 14 14 14 14 15 15 14 13 13
5 3 2 3 3 2 1 1 3 4 5 5 5 5 6 6 7 9 9 10 10 10 10 7 6 9 10 11 9 8 12 18 22 22 22 23 22 20 19 19 19 19 18 16 17 18 18 18 16 14 14 13 12 11 11 11 12 12 11 12 13 12 10 11 12 12 12 13 14 13 13 13 13 15 17 18 17 14 13 14 16 17 17 17 16 16 16 16 15 14 14 14 15 15 15 14 14
2 3 2 3 2 1 1 3 3 4 5 4 5 6 5 7 8 8 9 10 9 10 11 7 9 12 11 10 6 10 17 21 23 23 22 22 21 20 20 19 19 18 18 17 17 18 19 18 16 15 14 13 11 11 11 11 12 12 12 12 14 13 11 11 11 11 12 13 14 13 13 13 14 16 17 17 18 17 14 13 15 18 18 17 16 16 16 16 16 15 14 15 15 15 14 14 14
1 2 2 2 1 2 1 4 4 3 4 3 5 5 4 7 8 8 10 10 10 10 10 8 9 11 10 9 6 12 20 20 22 23 22 21 20 20 19 19 18 18 17 17 17 18 19 18 17 16 14 13 12 11 11 11 11 12 12 13 14 13 12 10 11 12 13 14 15 14 14 14 15 17 17 16 17 18 14 13 16 18 18 17 16 16 16 16 16 16 16 15 15 15 13 13 14
2 3 3 1 2 2 1 4 5 4 3 3 5 5 5 6 8 9 10 10 10 10 10 7 9 9 9 9 8 13 18 20 22 23 22 21 20 19 19 18 18 18 16 16 16 17 17 17 16 15 14 13 12 11 11 10 10 12 13 13 14 13 13 11 10 12 13 14 15 15 15 15 15 16 17 17 17 17 15 14 16 18 17 16 16 15 16 17 16 17 17 16 15 14 13 13 14
2 2 4 1 2 0 2 3 5 5 3 4 6 6 6 5 7 9 9 11 10 8 9 8 9 9 9 10 9 10 15 20 22 22 21 20 20 19 18 18 17 17 16 15 15 15 16 15 14 14 14 13 12 10 9 9 9 11 12 12 12 13 15 14 12 11 11 13 15 15 15 15 15 15 17 17 17 17 16 15 16 17 16 15 15 15 16 18 17 17 17 16 15 14 13 14 14
2 1 3 2 2 1 2 2 5 6 5 7 8 8 7 4 6 8 7 9 8 7 8 8 7 6 9 11 9 12 18 23 23 22 21 20 20 19 18 17 17 16 15 15 14 13 14 14 13 13 13 12 11 10 8 8 8 10 11 11 12 13 15 17 17 13 11 12 14 16 16 16 15 16 17 16 17 18 15 14 16 16 16 15 15 15 16 17 17 17 17 16 15 14 13 14 14
3 3 4 2 2 2 2 2 3 5 7 9 9 8 8 6 6 6 4 4 8 8 6 7 5 2 8 12 14 20 24 24 23 22 21 20 19 18 17 17 16 15 14 14 13 12 12 12 11 11 12 10 9 9 9 9 9 9 10 10 11 13 13 16 18 17 14 13 14 16 17 17 16 15 15 15 16 17 15 14 15 16 15 15 15 15 16 17 17 17 17 17 17 16 15 15 15
2 4 4 1 3 3 4 4 3 2 6 10 9 8 7 8 6 4 4 5 10 9 5 5 4 2 7 13 20 26 26 24 23 23 22 20 19 17 17 17 16 14 14 13 12 12 12 11 11 11 11 10 9 9 9 9 10 10 9 10 10 11 11 12 15 17 18 16 15 16 17 17 16 16 14 13 15 16 16 15 14 15 15 15 15 16 16 17 17 17 18 18 19 20 19 17 15
2 3 2 2 4 5 6 7 5 1 5 10 9 7 7 8 7 6 6 8 10 9 7 6 5 6 11 19 26 28 26 25 22 23 22 19 18 17 16 16 15 14 14 13 12 12 11 10 10 10 10 10 10 9 8 8 10 10 8 9 9 10 10 10 11 13 16 16 15 15 16 16 15 15 13 13 15 15 16 15 14 14 14 15 16 16 17 18 18 18 18 18 19 20 18 15 14
3 3 1 4 5 6 6 8 5 2 5 9 9 7 7 8 8 7 8 10 11 10 9 8 9 11 15 22 27 27 26 25 22 22 21 19 18 17 16 16 15 14 13 13 12 12 11 10 10 10 10 11 10 9 8 8 9 9 8 8 8 9 9 9 9 10 10 11 12 13 15 16 16 16 14 14 15 15 15 15 14 13 13 15 16 18 19 19 18 17 17 16 16 16 13 11 11
3 3 0 6 4 5 7 8 6 5 5 7 9 8 7 7 7 7 8 11 11 9 10 10 12 14 18 22 26 27 26 24 23 22 20 19 17 17 16 16 15 14 13 12 12 11 10 11 10 10 11 11 10 9 8 8 8 8 8 8 8 8 8 8 8 8 8 9 10 11 13 16 18 18 16 15 14 13 15 15 13 11 13 14 16 18 17 16 15 14 13 13 13 13 11 10 10
2 3 1 6 2 3 6 7 6 5 3 6 9 8 8 7 7 7 8 10 8 8 10 12 15 18 20 22 25 27 25 24 23 21 21 19 18 17 16 15 14 14 13 12 12 11 11 11 11 11 11 10 9 9 8 8 8 8 7 7 7 7 7 7 7 7 8 8 8 10 11 13 15 16 15 14 11 11 13 13 11 9 10 12 14 14 12 11 11 11 10 10 10 11 10 10 10
2 3 1 2 1 3 5 6 5 4 2 6 9 9 8 8 6 7 8 5 2 6 10 12 17 19 21 23 24 25 24 24 23 21 21 20 18 16 15 15 14 13 12 11 12 12 11 11 11 11 10 9 8 8 8 8 8 8 8 7 7 7 7 7 7 7 7 7 7 9 10 11 12 13 13 13 11 9 10 9 8 8 8 9 10 10 9 9 9 9 9 9 10 10 10 10 9
4 4 1 1 2 3 4 4 3 2 2 6 8 7 8 8 6 7 7 3 3 3 10 13 17 20 23 24 22 22 22 22 22 22 21 20 19 17 16 15 14 14 12 12 12 12 12 11 11 11 10 9 8 8 8 8 7 7 8 8 8 7 7 7 7 7 7 7 7 7 8 9 10 11 12 12 11 9 8 7 7 7 7 7 8 8 9 8 8 9 9 9 9 9 9 9 9
6 3 1 2 3 4 5 4 1 0 3 5 6 7 9 9 6 6 6 5 4 5 10 14 18 21 23 21 20 20 21 21 21 21 20 19 18 17 16 15 15 14 12 12 12 12 12 12 12 11 10 9 9 8 8 7 7 7 8 8 8 7 7 7 7 7 7 7 6 6 6 8 9 10 11 10 10 10 9 8 8 7 7 7 7 8 8 8 8 8 8 8 7 8 8 8 8
8 6 2 3 4 4 5 4 2 2 3 6 7 7 9 9 5 6 7 6 7 8 12 14 17 20 20 19 19 19 19 20 21 21 19 17 17 17 16 15 15 14 13 13 13 12 12 12 12 11 10 10 9 8 8 7 7 7 8 8 8 8 7 7 8 8 8 7 6 6 6 7 8 9 9 9 9 10 10 9 9 8 8 7 7 7 7 7 7 7 7 7 7 7 7 8 8
6 7 4 5 6 5 6 4 3 4 4 6 9 7 8 8 5 7 8 8 9 10 13 15 16 18 18 17 18 18 18 19 21 20 19 17 17 17 16 16 15 14 14 13 13 12 12 12 12 11 11 10 9 8 7 7 7 7 7 8 8 8 7 7 8 8 8 8 7 7 6 6 7 8 9 9 9 10 9 9 9 8 8 7 7 7 7 6 7 7 7 7 6 6 7 7 7
1 6 6 7 6 5 4 1 5 6 6 7 8 7 8 9 6 5 8 9 10 13 14 14 15 16 17 16 16 17 18 19 20 20 19 18 17 18 17 16 15 14 14 14 13 12 12 12 12 12 11 10 9 8 7 7 7 7 7 7 8 8 8 8 8 7 8 8 8 7 7 7 6 8 8 9 9 9 9 8 8 8 7 7 7 7 6 6 6 6 6 6 6 6 6 6 6
2 6 6 6 3 2 2 6 8 6 7 7 6 7 8 9 6 5 10 11 11 13 14 14 14 14 15 16 15 14 16 18 19 19 19 18 17 17 17 16 15 15 14 14 13 12 12 12 12 12 11 10 9 8 8 8 8 7 7 7 7 8 8 8 8 8 8 8 8 8 7 7 7 8 8 8 8 8 7 7 7 7 7 7 7 7 6 6 6 6 5 5 5 5 6 6 6
5 7 6 5 5 3 3 7 8 6 7 7 7 6 7 9 7 8 12 11 12 13 14 14 13 13 14 15 14 13 15 18 18 17 18 18 17 17 17 16 16 15 14 14 13 12 12 12 12 12 12 10 9 8 8 8 8 8 7 7 7 8 8 8 8 8 8 9 9 8 8 8 8 8 8 8 7 7 7 6 6 7 7 7 7 6 6 6 6 5 4 4 4 5 6 5 5
7 7 6 5 6 5 5 6 7 6 7 9 7 3 5 10 9 10 12 12 13 13 13 13 12 11 12 13 13 12 15 17 17 17 17 17 16 17 17 16 16 15 14 14 14 13 12 12 12 12 12 11 10 9 8 8 8 8 7 7 7 8 8 8 8 8 8 9 8 8 8 8 8 8 8 7 6 6 6 6 6 6 6 6 6 6 5 5 5 5 4 4 5 5 5 5 5
7 6 5 6 5 6 7 6 8 7 6 9 8 3 4 9 10 11 12 13 14 12 12 12 11 11 11 12 13 12 14 16 17 17 17 17 16 17 17 17 17 15 14 15 15 14 13 12 12 12 12 12 11 9 8 8 8 8 8 8 8 8 8 8 8 8 8 8 8 8 8 8 8 8 7 6 5 5 6 6 6 6 6 6 5 5 5 5 5 4 4 4 4 5 5 5 5
7 5 7 7 4 5 7 6 8 5 6 9 7 3 4 8 10 11 11 12 13 12 12 12 11 13 12 12 12 12 13 15 17 18 18 18 17 16 17 17 17 16 15 15 15 14 14 12 12 12 13 12 11 10 9 8 8 8 8 8 8 8 7 8 8 8 8 8 8 8 8 8 8 7 7 6 4 4 5 5 6 6 5 5 5 5 5 5 5 4 4 4 4 4 4 4 4
7 7 8 8 6 6 7 7 6 4 5 9 8 3 4 7 9 11 11 12 13 11 12 13 11 12 13 12 12 12 12 14 15 18 19 18 17 16 17 17 17 16 15 15 15 15 14 13 12 12 13 12 11 11 10 9 8 8 8 8 8 8 7 7 7 7 7 7 7 8 8 8 7 7 8 6 4 4 4 5 6 6 5 4 5 4 4 4 4 4 4 3 3 3 3 4 4
7 8 7 5 5 5 6 7 7 6 5 7 8 4 4 8 8 10 11 12 12 11 11 13 11 11 12 11 12 12 12 13 14 17 20 19 17 17 17 16 17 16 15 15 15 15 15 14 13 12 13 13 12 11 11 10 9 8 8 8 8 7 7 7 7 7 7 7 7 8 8 7 7 7 7 6 3 3 4 4 5 5 4 4 4 4 4 4 3 3 3 3 3 2 2 3 3
10 10 8 6 5 4 4 6 7 8 6 5 7 5 2 7 8 9 10 11 12 11 11 11 11 11 11 11 12 12 12 12 14 17 20 19 18 18 17 16 17 16 15 15 15 15 15 14 13 13 13 13 12 11 11 10 10 9 8 8 8 7 6 6 7 7 7 7 7 8 8 7 7 7 6 5 4 3 3 4 4 4 4 3 3 3 3 3 3 3 3 3 2 2 2 3 3
12 12 10 7 7 5 5 6 6 8 7 5 6 5 4 7 9 9 10 11 11 11 10 10 11 11 11 11 11 11 13 12 14 18 20 19 18 18 17 17 17 16 15 16 16 16 15 15 14 14 13 13 12 12 12 11 10 10 9 9 9 8 7 7 7 7 7 7 7 7 7 6 6 7 6 5 4 3 3 3 4 3 3 3 3 3 3 3 3 3 3 3 2 2 2 2 2
7 10 9 6 6 5 6 6 5 6 6 5 6 5 4 5 9 10 10 11 11 12 12 11 11 12 11 12 12 12 13 12 15 18 19 19 18 18 17 16 17 17 16 17 17 17 16 16 15 15 14 14 13 12 12 12 11 11 10 10 10 9 8 8 7 7 7 7 7 7 6 6 6 6 6 5 4 4 3 3 4 4 3 3 3 3 3 3 3 3 2 2 2 2 2 1 2
4 7 8 7 6 5 6 5 5 4 5 4 4 5 5 5 7 10 11 13 13 13 14 13 14 13 11 12 12 13 12 12 15 17 19 19 19 19 17 16 18 18 17 18 18 18 17 17 16 16 15 14 14 13 12 12 11 11 10 10 10 9 9 8 8 8 7 7 7 7 6 6 6 6 5 5 5 4 4 4 4 4 3 3 2 2 2 2 2 2 1 1 1 1 1 1 2
6 6 7 7 6 5 6 4 5 4 4 4 4 5 5 6 6 10 12 13 12 13 14 13 14 14 12 13 12 12 13 13 14 16 18 20 19 19 18 17 18 18 18 19 18 18 17 17 17 16 15 15 14 13 13 13 12 10 9 9 9 9 9 9 7 7 7 7 7 7 6 6 6 6 6 5 5 4 4 4 4 4 3 3 2 2 1 1 1 1 1 1 0 1 1 1 2
7 7 7 7 7 6 4 6 6 4 3 2 2 4 4 5 6 9 12 12 10 12 13 12 13 14 14 14 13 13 14 14 15 16 17 20 20 20 19 18 18 18 18 19 19 19 18 17 17 17 16 16 15 14 14 13 13 11 9 8 8 7 8 8 7 7 7 7 7 7 7 7 7 6 6 6 5 5 5 4 4 4 4 4 3 2 2 1 1 1 1 1 1 1 1 2 1
9 8 8 7 8 7 1 5 6 5 5 4 3 5 5 6 7 7 9 11 10 10 12 11 12 12 12 13 13 14 14 14 15 16 17 19 21 21 20 19 18 19 18 19 19 19 18 18 18 18 17 16 16 16 15 14 14 13 10 9 8 7 7 9 9 9 9 8 8 8 8 8 8 7 7 7 6 5 5 5 4 5 4 4 4 3 2 1 1 1 1 1 1 1 1 1 1
9 10 10 5 5 6 2 4 4 5 7 7 5 7 5 7 6 3 4 8 8 8 9 10 10 10 10 11 13 14 14 14 14 16 17 19 21 21 21 20 19 19 19 19 20 19 19 19 19 18 17 17 17 17 17 15 14 15 13 11 10 10 10 10 11 10 10 10 9 8 8 8 8 8 7 8 7 6 6 5 5 5 5 5 4 3 2 2 2 2 1 1 0 1 1 1 1
7 9 11 7 4 6 5 5 5 6 4 5 5 7 4 8 5 4 3 4 6 6 6 8 8 8 10 10 11 12 13 14 14 15 17 19 21 22 22 22 21 20 19 19 19 19 19 19 20 20 18 17 17 18 19 17 15 15 15 13 12 12 11 11 11 10 10 10 8 8 9 9 9 8 8 8 7 7 6 6 5 5 4 4 4 3 3 2 2 2 1 1 1 1 1 1 0
4 7 9 11 8 8 8 7 7 5 1 2 7 7 5 5 6 4 3 4 6 6 4 6 7 9 10 11 11 12 12 12 12 14 16 18 21 23 23 23 22 21 20 20 19 19 20 19 20 20 18 17 17 18 20 20 17 16 16 14 12 12 12 11 11 10 9 9 9 8 9 9 9 9 8 8 8 7 6 6 6 5 4 4 4 4 3 2 2 2 1 1 1 0 0 0 0
3 6 6 9 8 10 9 8 7 4 2 5 8 6 6 4 6 5 5 7 6 4 2 3 6 9 11 12 12 13 12 12 12 13 15 18 21 23 23 23 23 22 21 20 20 19 20 20 20 20 19 18 18 19 20 22 20 16 16 15 13 12 12 11 11 11 10 9 9 9 9 8 9 9 8 8 8 7 7 7 6 6 5 5 5 4 4 3 2 2 2 2 1 1 1 1 1
2 3 6 6 6 8 8 8 7 4 4 8 9 9 8 4 6 4 4 6 4 4 2 1 2 5 9 11 12 13 14 13 12 11 13 18 21 22 23 23 23 23 22 21 20 20 20 21 21 21 20 19 19 20 20 21 21 18 17 16 15 13 12 11 10 11 10 10 9 9 9 9 8 9 9 8 8 8 8 7 6 6 5 5 5 4 4 3 3 3 3 3 3 2 2 2 2
3 4 7 6 6 6 7 7 6 5 6 10 10 10 10 5 5 4 4 5 5 4 3 3 5 6 6 9 12 13 13 13 13 12 14 19 21 21 22 23 24 23 22 22 21 21 21 21 21 22 21 20 19 21 21 21 21 20 19 18 17 15 14 12 11 11 11 11 11 10 10 10 9 9 9 9 9 9 8 8 7 6 6 5 5 5 4 4 4 4 4 4 3 3 3 2 2
6 6 7 7 6 5 6 6 6 7 7 11 12 9 10 8 3 6 5 6 6 5 5 6 6 7 7 7 10 12 12 13 15 15 15 17 18 20 22 22 23 22 22 22 22 22 21 21 22 23 22 21 20 21 22 21 21 21 21 20 18 17 15 14 13 12 12 12 12 11 11 11 10 9 8 8 9 9 9 8 7 7 6 7 6 5 5 5 4 4 5 4 4 4 3 3 3
8 8 8 8 7 6 8 8 7 8 6 8 11 9 7 3 5 6 6 7 7 6 6 7 7 7 7 7 8 11 12 13 14 14 14 14 15 18 21 22 22 22 22 23 22 22 22 21 22 23 23 23 22 22 22 22 22 21 21 21 19 18 16 15 14 14 13 13 12 12 12 11 11 10 9 9 9 9 9 9 8 8 8 8 7 6 5 5 5 4 5 5 5 5 5 4 4
10 9 9 8 7 8 9 9 8 9 7 6 8 7 6 5 6 5 7 8 7 7 7 7 7 7 6 6 6 10 12 12 13 13 14 13 15 19 21 22 22 23 24 24 23 22 21 21 22 23 24 24 23 22 22 23 23 22 21 21 20 19 18 16 15 15 14 14 13 13 13 12 11 11 11 10 9 10 10 9 10 10 9 9 8 8 7 6 6 6 5 6 5 5 5 5 5
11 9 9 8 7 7 8 8 8 9 9 7 8 7 6 6 5 5 7 8 8 8 8 8 8 7 7 6 2 7 11 11 11 13 14 15 17 20 21 22 23 23 25 25 24 23 22 21 23 23 23 24 23 23 23 23 23 22 21 21 21 20 18 17 16 15 15 14 14 14 13 12 12 11 11 11 10 10 10 10 10 11 10 10 9 9 8 7 7 7 6 6 6 6 6 6 5
10 9 9 8 6 6 5 6 8 9 8 8 8 4 2 6 7 6 6 9 10 9 10 10 10 10 8 8 7 2 4 8 11 12 13 15 19 21 21 22 23 24 25 25 24 24 23 22 22 24 24 24 24 24 23 23 23 22 21 22 22 21 19 18 17 16 16 15 14 14 14 13 12 11 11 11 11 11 10 10 10 10 11 11 10 10 9 8 8 8 7 7 7 7 7 7 6
6 9 9 4 1 4 4 4 7 9 8 8 8 6 6 7 7 7 6 9 11 11 12 12 12 12 10 9 9 8 6 2 5 8 12 14 17 20 21 22 23 23 24 25 25 25 24 23 23 24 24 23 24 24 24 23 23 22 22 23 22 22 21 20 18 18 17 16 14 14 14 14 14 13 12 11 11 11 11 11 10 10 10 11 11 11 10 10 9 9 8 8 8 8 7 7 8
3 7 7 3 1 4 4 3 7 9 8 7 9 10 9 7 4 6 7 9 12 12 13 13 13 13 12 11 10 9 9 8 6 5 10 13 15 18 20 21 22 23 24 25 25 26 25 24 24 24 25 24 24 24 23 23 23 22 22 23 24 23 23 22 20 18 17 17 16 15 15 14 14 14 13 12 12 12 12 12 11 11 10 10 11 11 11 11 11 10 9 9 9 8 8 8 8
4 2 3 3 4 7 6 5 7 10 9 7 9 11 6 2 3 4 6 9 11 11 12 13 14 14 12 11 11 11 10 8 8 6 8 10 13 17 19 19 21 21 22 23 24 24 24 24 24 24 25 25 24 24 23 23 23 22 22 23 24 24 23 22 21 19 18 17 18 17 16 15 14 14 14 13 13 12 12 13 13 12 11 11 11 11 11 11 11 11 10 10 10 9 9 9 8
3 3 3 4 4 5 6 7 6 8 9 8 9 9 5 2 2 4 6 8 8 9 10 11 13 14 12 11 11 11 10 8 7 5 7 9 11 15 17 19 19 20 21 21 22 23 23 22 22 22 22 23 24 23 23 23 23 22 22 22 23 23 23 22 21 20 19 19 19 18 17 16 15 15 14 14 15 14 13 13 13 13 12 12 12 11 11 11 12 11 11 11 10 10 10 10 9
4 6 6 6 4 3 3 6 5 5 7 8 9 9 6 4 2 4 5 6 6 7 8 9 11 12 12 13 12 11 10 9 9 8 4 6 9 13 16 17 16 17 19 20 22 24 23 21 21 21 22 22 23 23 22 22 22 22 22 22 22 23 23 22 21 21 21 20 19 18 18 16 16 16 15 15 16 16 15 15 14 13 13 12 12 12 11 11 11 12 12 11 10 10 11 10 9
3 1 1 2 4 4 5 8 6 5 6 5 8 8 7 4 1 3 5 6 6 7 7 8 10 12 12 12 12 12 12 10 11 11 10 8 3 3 10 13 14 15 17 19 20 21 22 22 22 21 21 22 22 22 22 22 21 22 22 22 22 22 23 23 22 21 21 21 20 19 19 17 17 17 17 17 16 16 16 16 15 15 14 13 13 13 12 11 12 12 12 12 12 12 12 11 10
Wind_Direction
137 149 154 163 170 175 186 199 244 193 217 250 226 130 105 106 127 135 130 147 132 127 125 125 128 112 89 89 101 82 51 30 30 71 100 126 141 138 137 140 142 139 137 137 139 138 136 137 134 132 126 126 128 125 121 118 117 114 112 109 107 107 113 117 116 111 108 105 101 100 100 96 92 91 87 84 80 77 78 83 87 84 85 88 91 95 92 89 93 92 88 89 95 98 96 93 89
149 156 161 169 176 198 185 185 257 192 192 251 168 65 153 163 146 133 130 135 108 131 140 128 117 92 81 83 103 94 57 40 66 87 102 126 132 134 139 140 142 141 138 137 139 137 136 137 132 131 128 126 125 120 118 116 114 111 109 109 110 111 116 117 113 108 103 100 98 95 94 92 88 87 84 79 74 72 78 87 92 86 79 79 89 101 100 97 93 89 88 93 99 101 102 99 94
158 158 166 177 189 212 242 204 257 266 185 209 76 96 174 167 127 114 117 110 109 133 131 122 107 86 114 100 80 79 77 73 95 104 116 131 131 139 142 141 142 140 138 137 139 136 138 139 132 131 130 126 124 120 117 114 112 111 111 111 112 113 116 117 113 108 103 99 95 91 89 88 89 87 83 81 77 72 78 87 83 77 74 76 84 94 97 96 92 89 92 103 109 110 112 108 102
160 163 177 191 205 200 218 222 242 284 203 128 91 89 121 122 111 108 117 119 124 132 126 126 106 39 80 91 77 80 93 96 106 114 126 136 136 142 143 142 141 139 139 138 138 138 141 140 132 131 129 126 125 123 121 118 116 116 114 113 114 116 118 117 111 104 101 97 93 91 90 90 91 86 81 77 75 71 74 80 72 70 73 75 80 88 94 94 92 91 93 101 108 110 112 106 101
161 172 197 220 245 209 245 244 225 257 274 93 130 86 72 100 109 119 126 128 133 133 133 135 109 94 77 65 60 93 102 109 117 119 122 130 134 141 142 141 140 140 139 135 138 140 139 134 128 129 129 128 129 129 130 126 122 119 116 115 118 119 119 117 108 101 98 97 97 96 95 95 92 88 87 81 79 77 78 78 73 75 78 79 81 88 95 95 93 92 93 98 103 106 105 103 100
170 184 210 235 270 308 272 255 247 258 35 9 72 90 103 111 114 126 127 128 134 132 135 132 116 123 96 60 59 73 102 122 125 122 124 130 135 140 140 141 141 140 137 135 140 138 135 130 126 130 133 134 134 136 136 131 125 119 117 117 120 122 121 116 108 102 98 97 97 96 97 97 92 92 92 86 86 89 86 81 79 80 82 84 85 87 93 94 91 91 94 97 97 99 102 102 98
184 195 207 230 245 237 258 259 287 351 44 12 33 70 109 119 123 131 130 132 136 137 140 125 119 118 105 94 77 63 97 122 127 126 129 133 135 139 140 142 141 140 140 139 136 135 138 133 130 137 140 141 140 140 136 129 123 120 119 119 123 125 121 115 107 102 100 98 96 98 101 99 97 95 93 90 90 94 91 87 82 79 82 88 91 90 91 92 92 93 96 98 97 99 98 95 95
194 210 212 239 244 210 256 282 48 45 45 22 43 64 107 122 131 136 137 143 143 146 152 140 123 104 101 107 86 89 112 118 123 126 131 135 137 140 141 143 141 141 143 139 134 137 142 138 138 145 146 143 142 141 135 129 124 123 124 126 129 126 123 117 109 104 103 102 102 105 107 107 105 97 93 94 94 94 93 90 82 77 81 84 87 90 92 93 94 97 100 102 103 103 99 96 98
198 209 241 252 256 236 251 283 87 75 52 50 66 83 109 124 140 138 143 145 143 151 157 157 125 98 107 97 94 112 116 117 123 127 133 137 139 141 141 144 143 142 143 139 134 136 141 141 143 144 142 139 142 143 137 133 129 130 133 132 129 125 124 119 111 106 103 102 103 105 108 109 105 101 97 95 95 92 84 81 79 79 81 82 84 89 91 93 94 96 102 105 106 105 103 104 105
204 190 257 261 253 264 234 69 83 92 66 52 85 119 120 137 150 142 146 141 144 150 152 158 114 112 118 102 100 117 122 128 130 132 137 139 141 142 141 143 142 143 142 138 133 136 141 140 140 139 138 140 145 146 141 138 135 137 135 130 125 123 122 118 115 109 105 102 102 104 106 105 101 102 99 96 97 91 77 71 79 82 79 80 84 89 90 91 94 95 98 100 101 102 103 103 102
242 196 239 274 259 351 12 62 60 81 79 73 106 121 131 149 148 144 147 140 147 145 149 158 123 122 117 101 95 114 128 136 136 137 141 142 143 142 141 141 142 143 141 138 137 141 142 141 140 138 139 142 145 144 143 142 141 138 130 126 124 123 123 121 118 109 105 104 105 107 108 106 103 101 98 99 98 91 81 74 81 83 80 79 81 86 89 90 93 95 97 98 99 100 100 101 99
277 237 232 275 19 44 8 79 91 84 88 110 121 124 156 156 146 150 147 142 150 149 154 159 135 132 121 108 109 126 137 142 140 140 143 144 143 143 142 141 142 142 140 141 142 142 140 141 142 139 140 141 142 143 145 145 143 134 127 127 125 123 125 122 116 106 102 106 109 110 110 108 104 101 100 99 95 92 88 81 82 82 81 81 82 85 89 91 92 95 97 98 98 99 100 99 97
261 298 287 286 37 37 72 100 117 110 100 123 134 144 174 166 150 149 147 145 154 152 148 150 143 133 113 110 123 137 143 145 143 142 145 146 144 145 144 142 142 140 141 142 140 139 138 141 140 137 140 141 141 143 145 146 139 130 126 127 124 124 124 118 110 102 98 104 109 109 109 106 103 102 102 100 97 96 91 83 80 82 85 85 87 88 92 95 94 94 95 97 99 101 102 99 95
281 338 308 299 65 51 96 109 127 114 114 132 136 153 173 163 141 146 149 147 147 142 136 145 146 123 113 123 136 149 148 148 147 145 146 146 144 146 145 143 142 140 142 141 139 139 138 137 138 138 141 139 137 138 138 138 132 127 126 126 125 125 124 118 108 100 96 102 108 108 106 104 103 104 103 102 99 97 91 87 83 85 89 90 92 92 93 95 95 95 94 95 96 97 100 100 98
287 349 282 277 79 79 58 83 124 118 129 142 143 152 157 133 142 156 151 142 130 125 132 146 155 133 143 153 155 154 148 150 150 146 146 145 145 146 145 144 143 142 142 141 139 139 135 132 137 139 137 133 136 138 130 127 126 125 123 122 124 122 122 118 113 114 111 110 112 110 109 106 104 102 102 101 98 97 97 91 85 88 94 95 97 97 95 96 99 100 99 98 96 92 91 92 92
275 286 261 269 56 45 33 50 113 126 131 137 144 151 145 128 158 158 114 121 126 136 148 148 162 156 157 159 152 149 147 150 151 147 145 146 145 145 147 147 144 144 143 142 139 137 133 132 136 135 131 132 138 134 125 129 126 119 117 117 120 120 120 119 119 125 126 119 114 108 105 104 103 100 99 100 103 105 106 97 89 94 100 99 98 98 98 98 99 100 104 107 105 101 95 86 83
266 267 256 82 54 41 27 25 50 96 126 131 143 154 145 133 154 132 104 139 132 137 140 129 146 151 151 147 143 145 147 149 151 149 146 148 148 149 152 151 149 148 148 145 141 140 136 135 135 130 129 133 134 125 125 133 122 114 113 111 115 117 119 118 119 124 125 125 120 112 107 105 106 105 100 102 106 108 108 102 96 98 102 103 100 99 98 98 96 97 101 105 107 107 104 97 92
253 262 261 68 52 49 24 17 34 45 134 138 148 156 156 146 149 144 147 149 133 131 125 122 120 108 120 131 138 145 149 150 154 153 150 153 154 155 155 156 156 154 154 150 144 144 141 139 136 130 133 134 133 128 130 128 116 116 113 109 114 115 115 116 116 118 123 128 125 120 117 114 109 107 107 106 105 107 107 104 99 100 102 102 102 99 96 96 95 95 97 101 104 104 107 109 105
244 274 288 73 47 54 35 19 29 25 109 137 153 160 170 152 149 165 164 149 143 138 133 134 120 114 123 134 142 148 152 154 158 158 155 158 159 158 158 159 159 156 157 155 149 148 144 143 138 134 137 136 135 134 133 127 120 122 117 116 119 114 113 115 117 116 119 126 124 120 120 118 113 110 110 104 102 105 108 105 103 103 102 101 102 99 94 93 94 95 96 100 100 98 107 116 111
218 253 44 81 46 52 55 29 22 25 77 144 157 163 176 154 155 178 171 157 157 147 145 146 134 138 141 143 148 151 155 158 161 162 159 159 161 160 159 160 160 159 160 157 153 151 148 146 141 139 140 139 138 138 138 135 133 131 126 126 124 120 122 121 119 118 116 118 118 118 117 117 116 112 106 99 100 106 107 106 106 105 101 99 99 97 92 88 87 89 95 103 100 96 105 108 105
181 240 25 78 44 26 49 32 30 35 68 155 155 166 174 161 170 184 175 166 165 160 158 152 145 148 149 149 153 155 158 161 165 166 162 163 164 163 161 162 160 159 159 157 154 152 153 150 146 143 143 143 142 141 141 139 138 136 133 130 128 129 129 127 125 120 117 114 113 114 114 114 114 111 105 99 97 95 94 98 108 114 104 97 92 93 94 89 83 81 90 103 99 96 98 96 96
236 234 350 59 315 356 23 20 42 48 89 155 160 173 163 158 178 195 186 159 151 169 155 147 147 152 153 154 156 158 161 163 167 168 167 166 166 165 161 161 159 157 158 157 157 156 156 154 151 149 145 146 145 143 140 139 140 138 136 133 132 131 130 131 128 122 117 112 108 110 112 112 112 109 107 107 102 90 84 91 112 127 115 102 95 96 99 96 91 85 86 91 91 92 92 91 92
244 213 205 275 310 340 346 359 40 63 141 161 170 165 148 164 176 197 193 99 26 124 135 143 147 152 154 155 158 161 164 166 168 169 170 169 167 166 162 162 160 159 161 159 159 159 158 158 156 153 148 149 149 145 140 140 141 138 137 137 136 134 135 134 126 122 118 111 107 108 110 110 110 108 108 111 112 112 111 112 119 119 110 101 95 93 90 86 85 81 81 82 85 90 92 94 93
245 249 231 283 327 323 319 341 348 157 151 160 172 159 161 181 165 181 188 104 80 116 132 144 144 151 155 155 160 161 164 168 169 169 170 171 169 168 164 163 160 160 162 160 160 162 162 161 158 155 151 152 153 148 141 141 143 140 139 137 136 134 134 132 126 123 119 116 112 109 109 109 110 109 110 113 118 123 124 122 117 107 97 88 83 82 81 78 76 75 77 80 82 87 92 95 94
228 251 274 293 306 313 314 320 271 179 138 155 172 172 175 182 147 168 179 125 131 137 138 143 142 152 157 158 161 161 164 168 169 168 169 172 170 168 166 164 161 161 163 163 163 164 164 162 161 159 155 156 157 152 142 142 145 140 140 136 134 133 133 133 129 126 124 123 118 115 110 110 112 112 114 117 120 122 121 120 114 106 99 93 89 86 84 84 83 81 81 79 81 84 87 90 92
208 246 286 298 302 322 323 310 213 163 142 164 173 172 167 165 151 166 164 135 141 142 141 146 148 156 160 161 163 164 166 168 169 169 169 171 170 170 170 167 164 162 164 166 164 163 164 164 165 163 160 158 159 156 144 143 145 140 140 137 135 135 135 135 132 130 129 127 126 124 117 114 117 116 117 117 118 120 121 119 113 110 107 104 103 99 97 97 96 93 89 85 84 84 84 87 90
176 260 285 283 296 336 342 109 161 152 146 175 175 160 154 164 186 173 153 147 147 147 148 152 155 158 162 164 165 168 169 169 170 169 170 170 172 175 172 169 167 163 164 167 165 164 164 166 167 164 162 159 161 159 146 146 146 141 142 141 139 139 137 136 134 133 131 129 131 130 122 118 115 115 117 117 120 122 121 117 111 112 110 107 107 105 105 103 101 98 93 90 88 87 87 88 90
271 271 280 258 257 31 54 121 147 151 148 177 175 152 156 174 203 167 149 158 158 154 151 156 162 159 164 166 165 170 171 171 171 173 174 173 175 177 176 173 169 164 165 168 165 163 166 168 168 165 162 160 163 162 153 152 148 144 145 145 143 139 137 137 137 135 132 131 133 131 124 120 116 116 119 120 123 122 119 114 108 108 107 107 104 104 107 106 105 101 95 94 91 92 90 90 94
261 264 272 233 193 134 98 126 150 156 150 172 171 160 175 188 190 150 146 158 161 159 154 159 166 161 165 168 167 171 173 173 175 178 179 177 177 179 179 176 172 167 166 169 166 165 167 168 168 167 165 164 166 166 160 156 150 148 148 147 143 140 140 140 139 137 134 134 135 133 128 123 119 119 123 124 124 121 115 109 107 106 105 105 104 103 107 107 107 105 101 98 94 95 93 92 97
252 240 254 237 194 151 113 136 160 153 148 165 161 160 199 190 176 146 149 163 163 162 160 165 167 165 167 168 169 173 174 176 178 182 180 178 179 180 180 176 174 170 166 169 170 170 168 167 169 170 168 167 169 169 163 159 154 153 151 146 145 144 145 143 141 139 137 137 135 134 131 127 125 126 128 126 123 121 118 113 110 107 105 106 107 106 106 106 105 103 102 96 90 91 90 88 90
234 216 225 240 208 143 121 151 172 155 151 171 162 145 177 168 162 151 155 168 167 165 167 170 168 166 170 170 173 174 175 179 181 182 181 179 179 180 180 175 174 172 168 171 172 171 170 168 171 169 169 169 170 170 165 163 160 156 154 149 148 149 149 146 143 142 140 138 135 135 134 132 132 131 128 123 120 122 122 119 113 110 111 109 108 108 106 107 103 99 94 90 90 89 89 89 86
219 216 207 220 207 135 128 158 186 167 155 186 188 165 133 137 149 152 159 172 173 170 169 173 172 169 171 175 178 176 176 180 183 185 182 180 180 179 179 176 175 173 172 173 172 173 171 170 172 170 169 169 172 172 167 167 164 161 157 152 152 151 150 148 144 143 142 141 138 138 138 138 138 135 130 123 117 118 119 118 116 114 114 112 113 112 108 108 105 98 87 81 86 83 86 91 89
207 218 214 208 193 165 145 154 185 174 157 184 200 206 104 112 142 149 160 174 175 174 171 172 176 173 172 176 180 178 176 178 185 187 182 181 181 179 178 177 177 175 174 174 173 174 173 171 174 173 169 169 172 172 169 169 168 166 160 157 157 155 154 150 146 145 144 144 140 140 143 143 141 140 135 127 114 116 115 114 115 115 114 114 118 115 106 105 103 97 87 75 80 79 84 91 92
195 206 214 206 199 189 157 153 166 174 188 186 197 229 74 99 137 151 164 174 173 178 176 172 177 179 174 177 182 179 178 180 185 185 181 181 181 179 179 177 178 177 176 176 175 176 175 173 175 174 170 170 171 171 171 171 171 171 165 163 162 160 159 151 149 149 147 148 144 145 149 147 145 143 140 130 115 116 114 110 112 111 111 113 119 118 105 101 98 92 86 74 71 70 71 77 82
195 196 205 194 198 209 155 147 156 172 203 199 194 221 125 120 137 151 166 175 177 180 181 176 177 182 180 181 184 179 180 182 184 184 182 181 180 179 179 178 179 180 179 179 177 178 177 175 175 174 172 171 171 171 170 170 174 175 171 168 165 166 165 156 154 154 153 154 150 152 152 149 149 148 145 135 125 124 119 116 116 113 108 110 119 120 106 101 95 83 82 77 68 66 61 61 70
201 193 210 202 191 187 123 116 146 174 198 200 199 213 185 154 146 156 167 174 185 182 181 184 180 184 184 186 186 179 184 184 181 183 181 181 180 178 179 179 181 182 182 180 178 180 179 176 175 174 175 173 171 172 171 172 177 177 174 172 171 173 170 165 164 160 160 158 152 158 160 157 157 157 152 144 141 143 134 129 128 119 108 109 115 109 99 100 94 82 78 73 64 70 75 68 63
201 185 202 205 193 160 117 114 136 180 206 193 202 218 202 167 154 163 169 175 187 187 186 189 187 188 186 188 187 181 187 184 177 180 181 181 180 179 179 178 180 181 182 181 181 183 182 179 177 176 176 175 174 175 175 176 178 179 178 177 175 175 173 171 170 168 166 160 158 164 170 171 169 168 163 155 156 161 152 146 137 125 115 117 113 101 96 96 93 87 82 75 63 62 66 73 63
203 192 189 197 208 152 116 120 127 181 224 181 191 226 208 190 168 166 176 184 189 191 190 190 190 190 187 189 190 185 186 183 176 177 181 183 181 180 179 178 180 181 181 183 183 185 185 183 181 179 178 178 178 178 177 178 179 181 180 179 177 172 173 175 174 174 170 163 167 173 177 184 182 179 174 166 166 170 160 152 142 132 127 129 125 116 109 105 100 99 104 100 77 70 55 47 49
208 209 198 203 200 148 125 136 141 182 227 173 177 233 204 186 183 174 185 194 194 195 194 191 188 189 189 187 189 190 186 182 179 178 181 183 182 181 180 181 183 182 182 184 185 185 185 185 184 183 181 179 180 180 180 179 179 182 181 180 179 172 174 178 172 171 173 168 171 179 184 189 191 188 186 180 177 176 167 155 149 143 142 143 146 143 130 125 132 149 163 110 62 184 139 84 45
214 206 208 202 178 182 174 145 148 168 238 219 188 247 218 182 189 187 192 198 199 200 198 193 187 191 193 185 186 191 186 182 181 180 182 184 183 182 181 183 183 183 184 185 186 186 186 187 185 184 184 181 182 182 182 180 177 179 181 180 181 173 171 175 171 171 176 175 172 179 188 191 192 191 190 187 184 181 173 163 155 152 156 157 157 159 156 160 161 174 157 104 291 264 119 102 72
212 212 222 206 173 204 220 116 152 177 216 234 238 243 223 191 197 191 189 197 200 200 199 196 190 193 195 186 188 191 187 185 184 183 184 184 184 183 182 184 183 184 186 186 187 188 187 187 185 185 185 183 182 182 181 179 176 178 182 184 186 183 176 177 180 180 182 184 183 183 186 190 191 191 192 191 188 184 177 171 163 160 166 166 166 168 159 161 165 164 151 133 272 321 16 75 79
205 213 229 229 177 197 166 134 195 214 199 191 221 241 199 173 187 158 160 190 196 195 200 202 195 194 198 194 192 191 188 189 188 186 184 184 185 184 183 186 187 186 187 188 189 189 189 187 184 184 186 186 184 182 181 180 179 182 186 189 190 190 188 187 189 188 185 188 189 184 182 187 190 190 193 192 189 187 182 178 174 171 173 173 174 176 168 181 179 161 152 144 81 14 349 358 61
208 197 209 221 218 211 201 192 216 232 194 149 211 252 198 158 132 66 92 157 170 177 197 208 199 196 204 204 198 195 192 188 190 190 186 185 185 185 186 188 191 190 188 189 189 190 189 186 184 184 186 188 186 183 183 184 186 188 190 193 195 195 194 192 192 192 188 189 191 184 182 186 189 191 192 194 193 190 185 182 183 181 179 177 178 181 188 193 161 134 131 116 65 60 2 323 334
199 139 189 212 221 223 217 216 225 237 306 144 206 244 244 172 108 81 125 120 128 148 181 208 203 203 210 209 202 202 198 190 193 193 189 189 187 187 188 189 193 193 189 189 189 189 188 186 185 185 186 187 187 185 187 191 192 191 193 195 198 201 201 196 193 194 190 188 191 187 186 186 190 193 192 194 196 193 191 188 187 186 185 184 184 190 196 188 144 130 137 136 116 140 168 273 282
196 107 196 215 219 228 221 221 228 227 260 229 200 203 239 196 118 114 127 110 101 105 137 217 211 211 214 212 204 200 199 197 201 199 195 192 188 189 189 189 193 193 191 190 190 188 187 185 185 184 185 185 186 186 189 195 196 194 196 197 200 203 204 201 197 197 194 190 193 191 190 189 190 195 195 197 199 198 197 194 192 190 190 192 196 201 195 184 171 162 170 169 177 197 186 216 250
189 125 211 208 211 227 223 224 224 207 228 236 200 187 220 193 123 121 102 89 64 53 49 323 280 243 225 216 208 200 197 197 199 205 208 199 191 191 190 189 193 194 192 191 190 189 185 184 184 184 185 185 186 188 190 196 196 195 199 200 202 201 202 203 199 200 198 195 197 195 193 193 192 195 197 200 202 202 203 200 200 196 195 201 205 208 200 192 193 184 188 189 187 198 189 207 235
188 173 199 190 192 207 214 222 223 213 220 230 213 195 216 211 109 92 77 58 27 19 17 2 338 302 261 226 212 203 199 194 189 196 212 207 195 193 193 191 193 193 192 190 190 190 185 185 184 184 186 185 187 189 192 196 196 198 202 202 204 201 199 201 200 201 201 200 201 198 197 197 196 197 196 199 203 204 206 205 207 205 202 208 209 212 210 203 201 190 189 192 194 205 202 212 243
202 198 195 181 176 183 199 201 210 222 217 220 214 199 217 223 97 73 68 53 34 21 8 358 342 321 302 256 218 203 200 198 191 188 200 204 196 196 196 195 194 192 191 190 189 190 186 185 184 184 187 186 188 191 193 196 197 201 204 204 206 205 202 202 203 204 204 204 205 201 200 199 199 201 198 200 203 202 205 207 210 212 210 212 210 214 217 213 208 194 188 195 196 201 205 215 232
206 203 195 185 176 176 195 192 197 217 217 211 203 194 212 194 82 63 58 50 37 29 15 2 350 334 319 284 234 203 195 199 198 191 193 197 194 196 198 196 194 192 191 191 191 190 188 186 184 184 186 187 189 192 193 195 198 202 205 205 207 207 207 207 206 208 208 209 209 205 204 203 202 204 204 205 204 201 203 205 210 215 216 216 212 212 216 218 219 208 201 204 204 203 207 212 222
202 202 194 192 186 182 193 191 192 208 205 184 177 188 198 137 87 56 56 52 39 35 27 20 5 348 337 309 244 201 191 197 201 194 193 196 193 194 197 196 193 191 192 193 192 191 188 187 186 185 187 188 189 192 193 196 199 202 204 205 207 208 209 210 209 211 211 211 212 211 210 208 206 209 210 210 209 204 204 206 211 217 218 218 214 214 216 218 221 221 218 216 215 215 213 213 222
198 206 202 206 207 194 194 194 193 196 188 165 161 191 204 154 104 62 66 60 49 43 34 33 26 10 4 356 315 193 189 196 206 201 196 196 193 193 195 195 194 192 192 194 193 191 189 188 187 187 187 187 189 191 192 196 199 201 203 204 207 208 209 212 213 214 214 213 213 213 214 215 214 213 213 214 212 210 209 210 214 218 220 219 216 214 215 217 221 224 227 226 225 224 220 220 226
190 204 211 216 225 219 212 202 195 192 185 173 173 175 105 119 108 79 73 63 51 44 38 38 33 27 27 22 19 17 188 194 205 208 203 199 194 193 194 194 194 193 193 194 193 191 191 189 188 189 189 188 190 191 192 196 198 199 201 203 205 207 209 211 213 214 214 214 213 213 215 217 218 218 216 214 213 213 214 215 218 221 222 222 221 219 217 217 218 222 229 233 235 232 228 228 231
184 198 210 205 277 261 239 191 186 201 198 178 172 139 105 128 117 75 65 60 50 40 37 38 35 33 34 29 20 7 357 288 221 215 211 205 196 195 195 195 195 194 194 194 192 191 191 190 189 190 190 190 192 193 194 195 197 198 200 202 204 206 208 212 214 215 215 215 215 217 217 217 219 221 220 218 216 215 216 218 221 224 224 224 225 223 222 219 218 222 229 233 238 239 237 235 237
222 199 194 152 25 272 261 205 184 200 199 173 175 163 148 172 156 75 51 46 45 38 33 34 36 35 33 31 25 12 360 344 326 271 220 206 199 199 199 200 199 197 196 195 193 192 192 192 192 191 191 192 193 195 197 196 196 199 201 203 205 206 210 214 216 217 217 217 217 218 219 219 219 220 221 221 218 217 218 220 223 225 224 225 226 225 225 224 222 225 229 232 237 239 241 241 240
295 280 191 179 216 215 219 226 195 195 198 174 171 163 141 171 164 90 43 33 36 33 31 31 33 32 29 29 27 21 13 358 342 305 241 215 204 201 203 206 204 200 199 198 196 195 196 196 196 196 195 195 196 197 197 197 197 200 202 204 205 207 210 213 216 217 217 218 218 218 219 220 219 219 218 217 217 218 220 221 223 225 225 224 225 227 226 226 226 228 229 231 233 234 237 242 243
233 253 215 212 241 217 207 223 209 203 204 178 165 165 136 74 83 73 43 33 31 29 31 33 33 32 29 27 27 25 22 17 1 321 258 235 217 202 202 207 209 207 202 198 196 198 200 200 201 202 200 198 200 199 198 198 199 201 203 203 204 206 209 211 213 214 216 218 218 218 220 220 219 219 217 216 218 221 221 221 222 224 225 224 224 226 225 225 227 229 230 231 230 230 232 239 244
210 216 201 193 222 248 229 223 224 239 222 187 180 183 151 101 65 62 59 50 39 36 39 39 37 36 34 31 29 28 26 26 20 7 329 255 228 209 205 206 209 212 205 198 198 199 199 200 201 205 204 203 204 202 200 200 201 203 203 202 203 205 207 210 211 213 215 218 218 219 221 220 219 219 218 218 219 221 221 222 223 223 224 224 221 222 223 224 227 228 231 232 231 231 233 237 242
339 276 232 209 224 226 216 210 209 251 263 221 195 180 138 109 81 72 71 61 55 51 48 50 44 39 39 36 34 33 30 32 30 23 21 15 12 191 205 207 206 210 206 201 202 201 199 201 202 203 203 206 207 206 203 201 201 203 203 204 205 204 206 208 210 212 214 217 219 220 220 219 219 219 218 220 221 221 221 221 223 223 222 222 220 220 223 225 228 230 231 233 233 232 234 237 240
Height
795 797 796 797 796 797 796 795 810 807 806 813 798 800 807 795 793 800 804 798 798 796 788 787 786 791 797 799 801 803 807 809 812 816 823 822 817 823 824 825 827 828 831 833 834 836 837 838 838 840 840 842 842 843 844 845 846 846 847 847 848 848 849 849 849 850 850 850 850 851 850 850 850 849 849 849 851 851 851 851 849 849 850 851 851 851 850 852 852 852 853 853 853 853 853 854 855
796 797 796 797 795 798 794 793 812 809 810 817 799 803 806 794 795 800 802 797 796 793 785 785 787 793 794 793 794 799 808 806 804 809 813 815 818 823 824 827 828 829 832 833 836 837 838 838 839 841 841 843 843 844 845 846 847 848 848 848 849 849 849 850 850 851 851 851 851 852 852 851 850 850 850 851 853 856 854 851 850 851 852 852 852 851 850 852 854 854 855 854 854 854 854 854 855
797 796 795 797 794 795 794 796 813 814 817 821 805 800 800 797 796 797 796 793 790 786 785 788 792 796 796 800 799 804 813 806 803 808 812 816 819 822 826 828 829 831 832 835 837 837 839 839 840 842 842 844 844 845 846 847 848 848 849 849 850 850 850 851 851 852 852 852 853 853 853 852 851 851 852 853 855 858 855 852 852 853 853 853 853 852 852 853 854 855 855 854 854 854 854 854 854
796 796 795 794 793 796 801 804 807 808 815 819 813 802 796 796 794 797 794 789 787 784 790 792 798 797 795 807 804 805 813 809 807 809 813 817 818 822 825 828 830 832 834 836 838 839 840 840 841 843 844 845 846 847 847 848 849 849 850 851 851 851 851 852 852 852 853 853 854 854 854 853 853 853 854 855 857 859 856 853 855 855 855 855 854 854 854 854 855 855 855 854 854 855 855 855 855
795 796 794 792 797 798 799 800 794 800 810 811 813 806 796 793 795 800 793 789 787 788 793 793 802 799 795 804 801 808 815 811 810 809 813 817 819 823 825 828 830 832 834 836 838 840 841 841 843 844 845 846 847 848 848 849 850 851 851 852 852 852 852 852 853 853 854 855 854 854 854 855 854 854 856 857 858 858 855 853 856 856 856 856 855 855 855 855 855 856 856 855 855 855 857 857 857
795 795 792 791 794 793 799 801 794 797 800 797 803 805 797 794 797 799 794 791 788 788 792 793 800 800 803 804 799 808 810 810 812 811 815 818 821 824 826 829 830 832 834 836 838 839 841 842 843 845 846 847 848 849 850 850 851 852 852 853 853 853 853 853 854 854 855 855 856 855 855 855 855 855 857 859 859 856 854 854 857 857 857 857 856 856 856 856 856 857 857 856 855 855 857 858 858
794 795 792 794 792 792 804 799 792 796 795 792 798 803 797 794 795 795 796 796 794 793 793 794 792 799 810 806 806 810 807 809 810 812 817 819 823 825 828 830 831 833 835 837 838 840 842 842 843 845 846 848 849 850 851 851 852 853 853 854 854 854 854 854 854 855 856 856 857 857 857 857 856 857 858 860 859 856 854 855 858 858 858 858 856 856 856 857 858 858 859 858 858 857 859 859 859
793 795 789 797 798 795 800 791 791 797 797 792 795 800 794 793 793 794 799 798 799 798 797 795 790 804 811 804 814 814 808 811 811 815 819 821 825 826 829 830 832 834 836 838 840 841 842 843 844 846 847 848 850 851 852 852 853 853 854 855 855 855 854 854 855 855 856 857 858 858 858 858 858 858 859 860 858 856 855 856 858 859 859 858 856 856 858 859 859 860 860 860 860 860 861 861 862
791 795 791 798 801 795 794 791 795 797 796 794 797 799 792 792 792 794 799 798 798 798 799 794 790 807 813 809 818 813 810 814 814 818 820 823 826 827 830 831 833 834 837 838 840 842 843 845 846 847 848 849 851 852 853 853 854 854 855 855 856 856 855 855 855 856 857 858 858 858 858 859 859 859 860 860 859 856 855 857 858 860 859 859 857 857 859 860 860 861 862 862 862 863 863 864 864
790 793 794 798 796 795 795 794 797 797 798 798 800 799 794 794 793 794 798 800 798 799 798 790 793 807 811 815 819 812 813 816 816 820 822 825 826 828 831 832 834 835 837 839 841 843 845 847 847 849 850 851 852 853 854 854 855 855 855 856 857 857 856 856 856 857 857 858 858 858 858 859 860 860 861 861 860 858 855 856 859 861 860 859 858 859 860 861 862 862 863 864 864 865 865 866 866
797 790 791 800 796 799 802 805 807 801 800 800 800 798 795 793 793 796 797 800 798 799 798 793 801 807 809 817 818 814 815 817 818 821 823 826 828 830 831 833 835 836 838 839 842 843 845 847 848 850 851 852 853 853 854 854 855 855 856 856 857 857 857 857 858 858 858 858 859 859 858 859 861 862 863 862 862 860 857 858 860 861 861 860 860 861 862 863 864 864 865 865 866 867 867 868 867
804 792 789 802 798 800 801 806 812 807 804 803 803 798 794 791 795 799 798 802 799 800 798 795 801 801 811 820 818 815 815 818 820 822 824 827 829 831 833 834 836 837 839 840 842 843 846 847 849 850 851 852 853 853 854 854 855 855 856 857 857 859 858 857 858 859 859 860 860 859 859 860 861 863 864 864 863 862 860 860 861 861 862 863 863 864 864 865 866 866 866 867 868 868 869 869 869
800 792 791 797 793 797 797 800 804 806 810 806 804 799 793 793 796 797 797 800 800 803 799 793 793 797 813 819 816 816 816 819 820 823 825 827 830 832 834 835 837 838 840 841 842 844 846 847 849 850 851 852 852 853 854 854 855 855 856 857 858 859 859 858 857 858 860 861 861 860 860 860 862 863 865 865 865 864 863 862 861 862 864 865 865 866 867 867 867 867 868 869 870 870 871 871 871
792 792 798 797 788 791 795 803 802 805 814 806 801 797 794 794 793 792 794 801 802 800 795 788 789 801 816 819 820 817 815 820 821 824 826 828 831 832 835 836 838 839 841 842 843 845 846 848 849 851 851 852 853 853 854 854 855 856 856 857 859 860 861 861 858 857 859 862 863 862 862 862 863 864 865 866 866 866 864 863 862 864 866 868 868 868 868 868 869 869 870 870 870 871 872 873 873
789 792 799 794 788 790 795 804 801 805 811 801 798 795 795 794 790 792 794 801 802 792 790 790 789 803 812 815 821 814 813 820 822 825 826 829 831 833 836 837 839 840 842 843 844 845 846 848 850 851 851 853 853 854 855 855 856 856 856 857 858 860 861 863 862 861 860 862 865 865 865 864 865 865 866 867 867 867 866 866 865 866 869 870 871 870 870 870 870 871 872 872 872 872 872 872 873
785 790 796 793 794 796 794 794 793 802 802 793 794 793 799 798 790 795 793 794 799 792 792 796 792 799 803 805 810 808 813 820 822 825 826 830 832 834 836 837 840 840 842 843 845 846 846 849 850 851 852 853 854 853 855 855 856 857 857 857 858 860 861 862 864 865 864 864 864 865 865 865 865 866 867 868 868 869 868 868 867 868 871 872 872 871 871 871 871 872 873 875 875 875 874 872 872
785 792 795 795 799 798 792 789 795 802 795 791 795 794 803 804 794 794 791 790 798 798 796 797 793 794 796 798 803 807 815 819 822 825 826 830 832 834 837 838 840 841 843 844 845 846 847 849 850 852 852 854 854 854 855 855 857 858 858 858 858 860 860 862 863 865 867 867 867 866 866 866 866 867 868 869 870 870 870 870 870 871 872 873 873 872 872 872 872 873 874 876 877 878 878 877 877
791 797 796 797 800 798 793 789 791 792 791 793 796 797 802 805 801 795 794 797 799 801 801 798 795 794 795 798 804 810 815 819 822 824 826 829 831 833 835 837 839 841 843 844 845 846 848 849 850 852 853 854 855 855 855 856 858 859 859 859 859 860 860 861 862 864 866 868 869 868 869 870 869 869 869 870 871 872 872 872 871 872 873 873 873 873 873 873 873 874 875 876 877 878 879 880 880
795 797 795 798 797 793 788 786 785 785 789 792 794 798 799 801 801 796 801 805 802 806 806 802 803 802 800 802 807 812 815 819 821 822 824 826 829 831 834 836 838 840 842 844 845 846 848 849 851 852 854 855 855 856 856 857 859 859 860 860 860 861 861 862 862 863 865 866 868 869 869 871 872 871 871 871 871 872 872 872 873 874 874 874 874 874 874 874 875 876 876 877 877 878 879 881 881
792 794 798 797 792 788 784 785 785 782 786 791 795 797 798 798 796 796 803 805 802 806 807 805 810 810 806 806 809 813 816 819 821 822 824 826 829 831 833 835 837 839 841 843 845 847 848 849 851 853 854 855 856 856 857 858 859 860 860 861 861 861 862 862 863 863 864 865 866 868 868 870 872 873 873 872 872 872 872 872 874 875 875 875 875 874 875 876 877 877 877 877 878 878 879 880 880
790 792 796 793 788 789 784 783 784 782 785 790 795 798 800 797 794 796 799 804 807 804 799 800 807 808 806 807 808 813 816 818 821 822 824 826 829 830 833 835 837 839 841 843 845 847 848 849 851 852 854 855 856 857 857 858 859 860 861 861 862 862 863 863 863 864 864 865 866 867 868 869 871 872 873 873 873 872 871 873 874 876 876 876 876 876 876 877 877 877 877 878 878 879 880 880 880
791 789 787 786 786 790 785 780 783 784 786 790 796 799 798 795 796 797 795 806 811 798 791 793 798 802 804 805 808 812 815 817 820 822 823 825 828 830 832 835 837 839 841 843 845 847 848 850 851 852 854 855 856 857 858 859 859 860 861 861 862 862 863 863 864 865 865 866 866 867 868 869 870 872 874 874 874 872 872 873 875 877 877 876 876 877 878 878 878 879 879 879 879 880 880 880 881
792 788 782 783 783 787 784 778 781 783 788 794 795 794 793 797 801 796 793 803 802 789 786 790 795 799 802 804 807 810 813 816 818 821 823 825 828 830 832 835 837 839 841 843 845 847 848 849 851 852 854 855 856 858 858 859 860 860 861 861 862 863 863 864 865 865 866 866 867 867 868 869 871 872 874 875 876 876 876 876 876 876 876 876 876 877 877 878 879 879 880 880 880 880 881 881 881
793 790 783 782 780 783 781 777 780 781 787 791 789 790 795 801 801 796 795 798 795 788 787 790 795 799 802 805 807 810 812 815 817 821 824 825 828 830 832 834 836 839 841 843 845 847 848 850 851 852 854 855 857 857 858 859 860 861 861 862 863 863 864 865 865 866 866 867 867 868 869 870 871 872 874 875 877 878 878 878 877 876 876 876 876 876 877 878 879 879 880 881 881 881 881 881 881
792 790 784 781 780 779 776 776 779 780 784 787 788 793 795 795 795 798 798 795 793 791 790 791 796 800 803 806 808 810 813 815 818 820 824 827 829 831 833 835 836 839 841 843 845 847 848 850 851 853 854 855 856 857 858 860 861 861 862 863 863 864 865 865 866 866 867 868 868 869 870 871 872 873 875 876 877 878 879 878 878 878 877 877 877 878 878 879 880 880 881 881 881 881 881 882 882
788 786 783 782 780 777 776 778 779 781 783 785 791 794 792 789 792 799 796 792 793 791 793 795 797 802 804 806 808 810 812 815 818 821 824 827 829 832 833 835 836 839 841 843 845 847 848 850 851 853 854 855 856 858 859 860 861 862 862 863 864 864 865 866 867 867 868 869 870 870 871 872 873 874 875 876 877 878 878 879 879 879 879 879 879 880 880 881 881 882 882 882 882 882 882 882 882
782 783 782 781 780 777 777 780 780 781 784 785 790 795 793 788 794 803 796 790 792 793 797 797 798 803 804 806 808 810 813 814 818 820 823 826 828 831 833 834 836 838 841 842 844 846 848 850 851 852 854 855 856 858 859 860 861 862 863 863 864 865 866 866 867 868 869 870 870 871 872 873 874 875 875 876 877 878 879 879 880 880 880 880 881 881 881 882 882 882 882 882 882 882 882 882 882
781 782 783 780 778 778 778 781 782 781 787 785 786 794 794 792 796 802 795 789 791 795 800 800 801 803 804 806 808 810 813 815 818 820 822 824 827 830 832 833 835 837 840 842 844 846 848 849 851 852 854 855 856 858 859 860 861 862 863 864 864 865 866 867 868 869 869 870 871 872 873 873 875 875 876 877 877 878 879 879 880 880 881 881 881 881 882 882 883 883 883 883 883 882 882 882 882
781 781 787 783 777 783 782 782 782 782 789 783 784 801 804 799 797 793 789 789 791 795 801 802 802 803 804 806 808 811 813 814 817 819 821 823 826 828 830 833 835 837 839 842 844 845 847 849 851 852 853 855 856 858 859 860 861 862 863 864 864 865 866 867 868 869 870 871 871 872 873 874 875 876 876 877 878 878 879 879 880 880 881 881 882 882 882 883 883 883 883 883 883 883 882 882 882
783 780 786 784 782 790 784 781 783 783 788 779 789 819 818 801 792 787 787 789 792 798 801 803 803 803 804 806 808 810 811 814 816 818 821 822 825 828 829 832 834 837 839 841 843 845 847 848 850 852 853 855 856 858 859 860 861 862 863 864 865 865 867 868 868 869 870 871 872 872 873 874 875 876 877 877 878 879 879 880 880 881 881 882 882 882 882 883 883 883 883 883 883 883 882 883 882
784 782 785 783 786 794 783 781 785 787 788 778 795 827 818 799 791 786 787 789 793 801 802 801 802 804 805 806 808 810 810 813 815 817 820 822 825 827 829 832 834 836 839 841 843 844 846 848 850 851 853 855 856 858 859 860 861 862 863 864 865 866 866 868 868 869 870 871 872 873 873 874 875 876 877 878 878 879 880 880 881 881 881 882 882 882 883 883 883 883 883 883 883 883 883 883 883
783 790 796 784 785 794 786 781 783 788 789 779 798 822 808 795 790 785 787 789 792 799 801 801 802 803 805 806 807 809 810 811 815 817 819 822 824 826 829 831 833 836 838 840 842 844 846 848 849 851 853 854 856 857 859 860 861 862 863 864 865 866 867 868 869 869 870 871 872 873 874 874 875 876 877 878 879 879 880 880 880 881 881 882 882 882 883 883 883 883 883 883 883 883 883 883 883
783 791 798 785 783 793 791 786 779 782 788 784 798 810 800 794 790 785 787 789 792 798 800 801 802 801 803 805 805 806 809 811 814 815 818 821 823 826 828 831 833 835 838 840 842 844 845 847 849 851 852 854 856 857 858 860 861 862 863 864 865 866 867 868 868 869 870 871 872 873 873 874 875 876 877 877 878 879 880 880 880 881 881 882 882 882 882 883 883 883 883 883 884 883 883 883 883
787 788 791 782 781 787 791 792 781 779 788 789 794 797 793 793 789 788 788 788 793 798 799 800 801 801 800 802 804 805 808 811 812 813 816 820 822 825 828 830 833 835 837 839 841 843 845 847 849 850 852 854 856 857 858 860 861 862 863 864 865 866 867 868 868 869 870 871 872 873 873 874 875 876 877 877 878 879 879 880 880 881 881 881 882 882 882 883 883 883 883 883 883 883 883 883 883
786 788 788 786 784 785 789 792 784 782 789 790 793 794 791 790 789 790 789 788 794 797 798 799 800 801 801 801 802 803 807 809 810 811 815 818 821 824 827 830 832 834 837 839 841 843 844 846 848 850 852 853 855 857 858 860 861 862 863 864 865 866 867 867 868 869 870 871 872 873 873 874 875 876 877 877 878 879 879 880 880 880 881 881 882 882 882 882 883 883 883 883 883 883 883 883 883
776 780 783 783 784 783 785 787 781 780 790 791 791 793 788 787 790 792 789 788 793 796 796 798 799 800 800 801 801 802 806 807 807 810 813 816 819 822 825 828 831 833 836 838 840 842 844 846 847 849 851 853 855 856 858 859 861 862 863 864 865 866 867 867 868 869 870 871 872 873 874 874 875 876 876 877 878 879 879 880 880 881 881 881 882 882 882 882 883 883 883 883 884 883 883 883 883
772 777 782 781 781 783 783 784 780 776 788 791 786 787 785 783 787 788 788 789 792 795 797 798 799 799 800 801 800 802 804 803 804 809 812 815 818 821 824 827 830 832 835 837 839 841 843 845 847 848 850 852 854 856 857 858 860 861 862 863 864 865 866 867 868 869 870 870 872 873 873 874 875 875 876 877 878 878 879 880 880 881 881 881 882 882 882 882 882 883 883 883 884 883 883 883 883
780 780 783 784 782 783 782 783 780 775 786 790 783 786 786 781 781 783 785 789 791 792 794 797 797 797 799 801 801 801 802 800 802 807 810 813 816 819 823 825 828 830 833 836 838 840 842 844 846 848 849 851 853 855 856 858 859 860 861 862 863 864 865 867 867 868 869 870 871 872 873 874 875 875 876 876 877 878 879 879 880 880 881 881 882 882 882 882 882 883 883 883 883 884 883 883 883
785 781 783 786 780 781 785 783 779 777 784 789 786 788 786 778 776 778 781 785 785 783 786 791 793 795 797 800 802 801 801 801 801 804 807 811 814 817 821 824 826 829 831 834 836 839 841 843 845 847 848 850 852 854 855 857 859 860 861 862 862 863 865 866 867 868 869 870 871 872 873 874 874 875 876 876 877 878 878 879 880 880 881 881 882 882 882 883 883 883 883 883 883 883 883 883 883
785 782 785 786 779 784 790 785 781 780 781 784 787 788 783 776 775 775 775 777 778 777 779 783 786 791 793 794 799 800 800 802 801 803 804 808 812 815 819 822 824 827 830 832 835 837 839 841 843 845 847 849 851 853 855 856 858 859 861 862 862 863 865 866 867 868 869 870 871 872 872 873 874 875 875 876 877 877 878 879 880 880 881 882 882 882 883 883 883 883 883 884 883 883 882 883 884
785 782 783 781 779 783 786 785 783 782 782 781 786 794 786 777 779 778 772 773 776 777 778 782 785 787 789 790 794 795 796 799 801 801 802 804 809 812 816 820 822 825 827 830 832 835 837 839 842 844 846 848 850 852 854 855 857 859 860 861 863 863 865 866 867 868 869 870 871 871 872 873 873 875 875 876 877 877 878 878 879 880 881 881 882 882 883 883 883 883 883 884 884 883 882 883 883
787 784 779 777 780 783 785 786 787 790 792 782 784 804 798 778 779 781 775 777 780 779 781 785 786 787 789 791 792 793 794 795 797 798 799 802 806 810 814 817 820 822 825 828 830 833 835 838 840 843 845 847 849 850 853 855 856 857 859 860 862 863 864 865 865 866 868 869 870 870 871 872 873 874 875 876 877 877 877 878 879 880 881 881 882 882 882 882 883 883 883 883 884 884 884 883 883
789 781 775 779 783 785 786 788 791 794 794 782 781 801 800 784 787 787 781 784 785 784 786 785 786 789 790 791 792 792 792 793 795 795 796 799 803 807 811 815 817 820 823 826 828 831 833 836 838 841 844 845 848 849 851 853 855 856 858 859 861 862 862 863 865 866 867 868 869 870 871 872 873 874 875 875 876 877 877 878 878 879 880 880 881 881 882 882 882 883 883 884 884 884 884 884 884
786 775 774 782 784 787 787 788 792 787 785 786 781 789 796 794 800 793 784 790 791 789 791 787 786 788 789 788 790 791 791 793 795 794 794 796 800 804 808 812 815 817 820 823 826 829 832 835 837 839 842 844 846 848 849 851 853 855 857 858 860 861 861 863 864 865 866 868 869 870 870 871 872 873 874 875 876 877 877 878 878 879 880 880 881 881 881 882 882 883 883 884 884 884 885 885 884
780 774 778 780 781 785 783 786 790 784 792 801 786 785 800 801 799 791 785 794 798 795 794 789 786 786 786 786 786 788 789 791 793 794 794 794 797 801 805 809 812 815 818 821 824 827 830 833 835 837 840 842 844 846 848 850 852 854 856 858 859 860 861 862 864 865 866 867 868 869 870 871 872 872 874 875 875 877 877 878 878 879 879 880 880 881 881 882 882 883 883 884 885 885 885 885 885
775 775 779 778 781 783 782 787 788 789 806 809 787 785 800 802 797 793 793 800 803 798 792 788 785 783 782 783 784 785 786 788 790 793 795 793 794 799 802 806 810 812 815 818 822 824 828 830 833 836 838 840 843 844 847 848 851 853 855 856 858 859 861 861 863 864 865 867 868 869 870 870 871 872 873 874 875 876 877 878 878 879 879 879 880 880 881 881 882 882 883 884 884 884 885 885 885
774 779 782 784 785 783 786 786 785 800 817 805 783 780 791 803 805 799 800 804 800 797 794 790 787 783 781 779 780 782 783 785 787 791 795 794 794 797 800 803 806 809 812 816 819 822 825 828 830 833 836 838 841 842 845 847 849 852 853 855 856 858 860 861 862 863 864 866 867 868 869 870 871 872 873 874 875 876 877 877 878 878 879 879 880 880 881 881 882 882 883 883 884 884 884 885 885
777 782 784 791 795 793 796 795 796 816 820 795 778 777 784 803 810 801 799 798 794 796 796 794 792 787 783 778 776 778 780 782 782 786 791 790 792 795 798 801 804 807 810 813 817 819 822 826 827 831 833 836 839 840 843 846 848 850 851 853 855 857 858 860 861 862 864 865 866 867 869 870 871 871 872 873 874 875 876 877 878 878 879 879 880 880 880 881 881 882 882 883 883 884 884 884 884
781 783 785 799 809 812 816 813 812 818 807 783 774 780 789 801 806 800 798 796 793 793 793 792 792 788 784 779 774 774 777 779 780 782 785 785 789 792 794 799 801 805 808 810 814 817 819 823 825 828 831 833 836 838 841 843 845 848 850 852 854 856 857 858 860 861 863 864 865 866 868 869 870 870 871 872 873 874 875 876 877 878 879 879 879 880 880 881 881 882 882 883 883 883 884 884 884
783 783 786 799 809 821 828 819 814 813 798 780 775 785 797 803 803 798 795 795 791 790 789 789 789 786 783 777 771 771 773 776 777 778 781 781 784 788 791 795 799 802 806 808 811 814 817 820 823 825 828 830 833 836 839 841 843 845 848 850 852 854 856 857 859 860 861 863 864 865 866 867 869 869 870 871 872 873 874 875 876 877 878 879 879 879 880 880 881 881 882 882 882 883 883 883 883
779 773 776 787 790 803 815 809 808 807 794 786 788 793 797 801 804 795 789 790 788 788 787 786 786 783 779 775 770 769 771 774 776 774 776 778 780 785 789 792 796 799 802 806 809 812 815 818 820 823 826 828 831 833 836 839 841 843 845 848 850 852 854 856 857 859 860 861 863 864 865 866 867 868 869 870 871 872 873 874 875 876 877 878 878 879 879 880 880 880 881 882 882 882 882 883 883
774 765 774 783 774 776 787 786 785 786 789 793 793 793 789 791 796 789 786 790 788 789 789 786 788 784 780 780 776 773 773 774 775 773 774 775 777 782 786 789 793 796 799 802 805 809 812 815 818 820 823 826 828 831 834 836 838 841 843 845 848 850 852 854 855 857 858 860 861 862 864 865 866 867 868 869 870 871 872 873 874 875 876 877 877 878 878 879 879 880 880 881 881 882 882 882 882
773 772 779 774 762 766 780 785 777 777 792 793 785 795 799 796 798 791 788 794 793 792 792 790 791 788 785 786 783 780 778 776 775 774 773 774 775 779 783 786 789 793 796 799 802 806 809 812 815 818 821 823 826 828 831 834 836 838 841 842 845 847 849 851 853 855 856 858 859 861 862 863 864 866 867 868 869 870 871 872 873 874 875 876 876 877 877 878 879 879 879 880 880 881 881 881 882
775 780 774 765 768 772 778 791 791 789 800 793 781 795 805 804 807 802 794 798 799 797 796 793 792 791 790 789 787 785 782 778 776 773 771 771 773 777 781 784 787 790 794 796 800 803 805 809 812 814 818 820 823 826 828 831 834 836 838 840 842 844 846 849 851 853 855 856 858 859 860 862 863 864 865 866 868 869 870 871 872 873 874 874 875 876 877 877 878 878 878 879 879 880 880 880 881
774 775 765 768 787 788 783 791 797 798 802 797 789 792 801 803 804 804 804 804 803 800 799 798 796 794 794 791 790 788 785 782 779 775 772 769 771 776 779 782 785 788 792 795 799 802 804 807 809 811 815 817 820 823 826 829 831 833 836 837 839 842 844 846 848 851 853 854 855 857 858 860 861 862 864 865 866 867 868 869 870 871 872 873 874 874 875 876 876 877 877 878 878 878 879 879 880
771 773 768 770 778 781 782 780 780 788 793 798 803 802 806 809 801 803 809 806 804 805 803 801 800 797 796 793 791 789 787 786 783 778 774 770 770 773 777 780 783 785 789 793 796 800 802 805 807 810 813 815 818 821 823 826 828 830 833 834 837 839 841 844 846 848 850 851 853 854 856 857 859 860 862 863 864 865 866 867 868 869 870 871 872 873 874 874 875 876 876 876 877 877 877 878 879
776 777 775 776 774 773 778 773 767 775 780 790 806 810 811 811 803 803 809 806 806 807 804 804 802 799 798 796 794 792 789 787 785 780 775 772 771 773 776 779 782 784 787 791 793 796 799 802 805 807 810 813 816 818 821 823 825 828 830 832 834 836 839 841 843 845 847 849 850 852 853 855 856 858 859 861 862 863 864 865 866 867 868 869 870 871 872 873 873 874 874 875 875 876 876 876 877
784 780 778 780 778 777 788 788 775 772 774 776 788 805 815 812 804 803 806 806 806 805 804 805 803 801 801 798 796 795 791 788 786 783 779 776 773 774 776 777 780 783 785 789 792 794 797 799 801 804 807 810 812 815 818 820 823 825 827 829 832 834 836 838 840 843 844 846 848 849 851 853 854 855 857 858 859 860 862 863 864 865 866 867 868 869 870 871 872 872 873 873 874 874 875 875 875